When you browse on this site, cookies collect data to enhance your experience and personalize the content and advertising you see.
Visit our Privacy Policy to learn more. By continuing to use the site, you agree to this use of cookies and data.
EN

Hourly Weather Khorugh

Today, 5 July, Sunday

Time Temperature Precipitation Wind Pressure Humidity
00:00 +5°C° 0 mm 2 mps 480 mmHg 59%
01:00 +4°C° 0 mm 2 mps 479 mmHg 61%
02:00 +5°C° 0 mm 1 mps 478 mmHg 62%
03:00 +4°C° 0 mm 1 mps 478 mmHg 64%
04:00 +4°C° 0 mm 1 mps 478 mmHg 66%
05:00 +3°C° 0 mm 1 mps 477 mmHg 67%
06:00 +3°C° 0 mm 0 mps 478 mmHg 62%
07:00 +4°C° 0 mm 0 mps 479 mmHg 56%
08:00 +5°C° 0 mm 0 mps 479 mmHg 50%
09:00 +8°C° 0 mm 1 mps 480 mmHg 44%
10:00 +9°C° 0 mm 1 mps 481 mmHg 38%
11:00 +9°C° 0 mm 2 mps 482 mmHg 32%
12:00 +10°C° 0 mm 2 mps 482 mmHg 29%
13:00 +11°C° 0 mm 3 mps 482 mmHg 27%
14:00 +12°C° 0 mm 3 mps 482 mmHg 25%
15:00 +12°C° 0 mm 3 mps 482 mmHg 26%
16:00 +11°C° 0 mm 3 mps 482 mmHg 26%
17:00 +11°C° 0 mm 3 mps 482 mmHg 27%
18:00 +10°C° 0 mm 3 mps 482 mmHg 31%
19:00 +9°C° 0 mm 3 mps 481 mmHg 35%
20:00 +8°C° 0 mm 2 mps 481 mmHg 38%
21:00 +8°C° 0 mm 2 mps 480 mmHg 42%
22:00 +7°C° 0 mm 2 mps 480 mmHg 45%
23:00 +7°C° 0 mm 1 mps 479 mmHg 49%

Tomorrow, 6 July, Monday

Time Temperature Precipitation Wind Pressure Humidity
00:00 +6°C° 0 mm 1 mps 479 mmHg 51%
01:00 +6°C° 0 mm 1 mps 478 mmHg 53%
02:00 +5°C° 0 mm 1 mps 478 mmHg 55%
03:00 +4°C° 0 mm 1 mps 477 mmHg 56%
04:00 +3°C° 0 mm 0 mps 477 mmHg 57%
05:00 +2°C° 0 mm 0 mps 476 mmHg 57%
06:00 +4°C° 0 mm 0 mps 478 mmHg 49%
07:00 +6°C° 0 mm 1 mps 479 mmHg 41%
08:00 +8°C° 0 mm 1 mps 480 mmHg 33%
09:00 +9°C° 0 mm 1 mps 480 mmHg 29%
10:00 +10°C° 0 mm 1 mps 481 mmHg 25%
11:00 +11°C° 0 mm 1 mps 482 mmHg 21%
12:00 +12°C° 0 mm 2 mps 482 mmHg 19%
13:00 +13°C° 0 mm 2 mps 483 mmHg 18%
14:00 +13°C° 0 mm 3 mps 483 mmHg 16%
15:00 +13°C° 0 mm 3 mps 483 mmHg 17%
16:00 +13°C° 0 mm 3 mps 483 mmHg 17%
17:00 +13°C° 0 mm 3 mps 483 mmHg 18%
18:00 +12°C° 0 mm 3 mps 482 mmHg 22%
19:00 +12°C° 0 mm 2 mps 482 mmHg 27%
20:00 +10°C° 0 mm 2 mps 481 mmHg 31%
21:00 +10°C° 0 mm 1 mps 481 mmHg 34%
22:00 +9°C° 0 mm 1 mps 481 mmHg 38%
23:00 +8°C° 0 mm 1 mps 481 mmHg 41%

Day after tomorrow, 7 July, Tuesday

Time Temperature Precipitation Wind Pressure Humidity
00:00 +7°C° 0 mm 1 mps 480 mmHg 43%
01:00 +5°C° 0 mm 0 mps 480 mmHg 45%
02:00 +5°C° 0 mm 0 mps 479 mmHg 47%
03:00 +4°C° 0 mm 0 mps 479 mmHg 47%
04:00 +4°C° 0 mm 0 mps 478 mmHg 46%
05:00 +3°C° 0 mm 0 mps 478 mmHg 46%
06:00 +5°C° 0 mm 0 mps 479 mmHg 39%
07:00 +7°C° 0 mm 0 mps 481 mmHg 32%
08:00 +9°C° 0 mm 0 mps 482 mmHg 25%
09:00 +11°C° 0 mm 1 mps 483 mmHg 22%
10:00 +13°C° 0 mm 1 mps 484 mmHg 18%
11:00 +14°C° 0 mm 1 mps 485 mmHg 15%
12:00 +15°C° 0 mm 2 mps 485 mmHg 14%
13:00 +16°C° 0 mm 2 mps 486 mmHg 13%
14:00 +16°C° 0 mm 2 mps 486 mmHg 13%
15:00 +16°C° 0 mm 3 mps 486 mmHg 14%
16:00 +16°C° 0 mm 3 mps 486 mmHg 15%
17:00 +16°C° 0 mm 3 mps 486 mmHg 16%
18:00 +14°C° 0 mm 3 mps 485 mmHg 21%
19:00 +14°C° 0 mm 2 mps 485 mmHg 26%
20:00 +13°C° 0 mm 2 mps 485 mmHg 30%
21:00 +12°C° 0 mm 2 mps 484 mmHg 34%
22:00 +11°C° 0 mm 1 mps 484 mmHg 37%
23:00 +11°C° 0 mm 1 mps 484 mmHg 40%

8 July, Wednesday

Time Temperature Precipitation Wind Pressure Humidity
00:00 +10°C° 0 mm 1 mps 484 mmHg 41%
01:00 +10°C° 0 mm 1 mps 483 mmHg 43%
02:00 +10°C° 0 mm 1 mps 483 mmHg 44%
03:00 +9°C° 0 mm 1 mps 482 mmHg 46%
04:00 +7°C° 0 mm 0 mps 482 mmHg 48%
05:00 +6°C° 0 mm 0 mps 481 mmHg 51%
06:00 +8°C° 0 mm 0 mps 482 mmHg 44%
07:00 +9°C° 0 mm 0 mps 483 mmHg 38%
08:00 +11°C° 0 mm 0 mps 484 mmHg 32%
09:00 +13°C° 0 mm 1 mps 485 mmHg 29%
10:00 +14°C° 0 mm 1 mps 486 mmHg 26%
11:00 +16°C° 0 mm 1 mps 486 mmHg 23%
12:00 +16°C° 0 mm 2 mps 486 mmHg 22%
13:00 +17°C° 0 mm 2 mps 486 mmHg 22%
14:00 +17°C° 0 mm 3 mps 486 mmHg 21%
15:00 +17°C° 0 mm 3 mps 486 mmHg 22%
16:00 +17°C° 0 mm 4 mps 486 mmHg 24%
17:00 +17°C° 0 mm 4 mps 486 mmHg 25%
18:00 +16°C° 0 mm 3 mps 486 mmHg 30%
19:00 +13°C° 0 mm 3 mps 485 mmHg 35%
20:00 +13°C° 0 mm 2 mps 485 mmHg 40%
21:00 +13°C° 0 mm 2 mps 485 mmHg 42%
22:00 +12°C° 0 mm 1 mps 484 mmHg 43%
23:00 +12°C° 0 mm 1 mps 484 mmHg 45%

9 July, Thursday

Time Temperature Precipitation Wind Pressure Humidity
00:00 +11°C° 0 mm 1 mps 483 mmHg 48%
01:00 +11°C° 0 mm 1 mps 483 mmHg 50%
02:00 +10°C° 0 mm 1 mps 482 mmHg 52%
03:00 +9°C° 0 mm 1 mps 482 mmHg 55%
04:00 +9°C° 0 mm 1 mps 481 mmHg 57%
05:00 +7°C° 0 mm 0 mps 481 mmHg 60%
06:00 +9°C° 0 mm 1 mps 482 mmHg 54%
07:00 +10°C° 0 mm 1 mps 482 mmHg 49%
08:00 +11°C° 0 mm 1 mps 483 mmHg 44%
09:00 +12°C° 0.1 mm 1 mps 483 mmHg 42%
10:00 +13°C° 0.1 mm 2 mps 484 mmHg 39%
11:00 +14°C° 0.1 mm 2 mps 484 mmHg 37%
12:00 +13°C° 0.1 mm 3 mps 484 mmHg 36%
13:00 +14°C° 0.1 mm 3 mps 484 mmHg 35%
14:00 +14°C° 0.1 mm 4 mps 484 mmHg 34%
15:00 +14°C° 0.2 mm 4 mps 484 mmHg 35%
16:00 +14°C° 0.2 mm 4 mps 484 mmHg 35%
17:00 +13°C° 0.2 mm 4 mps 483 mmHg 36%
18:00 +12°C° 0.1 mm 3 mps 483 mmHg 40%
19:00 +12°C° 0.1 mm 3 mps 482 mmHg 44%
20:00 +12°C° 0.1 mm 2 mps 482 mmHg 48%
21:00 +10°C° 0.1 mm 2 mps 481 mmHg 52%
22:00 +9°C° 0.1 mm 2 mps 481 mmHg 56%
23:00 +9°C° 0.1 mm 2 mps 481 mmHg 59%

10 July, Friday

Time Temperature Precipitation Wind Pressure Humidity
00:00 +8°C° 0.1 mm 2 mps 480 mmHg 62%
01:00 +7°C° 0.1 mm 2 mps 480 mmHg 64%
02:00 +7°C° 0.1 mm 2 mps 479 mmHg 67%
03:00 +7°C° 0.1 mm 1 mps 479 mmHg 68%
04:00 +7°C° 0.1 mm 1 mps 478 mmHg 70%
05:00 +6°C° 0.1 mm 1 mps 478 mmHg 71%
06:00 +7°C° 0 mm 1 mps 479 mmHg 64%
07:00 +8°C° 0 mm 1 mps 480 mmHg 57%
08:00 +8°C° 0 mm 2 mps 480 mmHg 49%
09:00 +9°C° 0 mm 2 mps 481 mmHg 44%
10:00 +10°C° 0 mm 2 mps 481 mmHg 38%
11:00 +12°C° 0 mm 2 mps 482 mmHg 33%
12:00 +12°C° 0 mm 3 mps 482 mmHg 33%
13:00 +12°C° 0 mm 4 mps 481 mmHg 33%
14:00 +12°C° 0 mm 4 mps 481 mmHg 33%
15:00 +12°C° 0 mm 4 mps 481 mmHg 33%
16:00 +12°C° 0 mm 4 mps 481 mmHg 34%
17:00 +12°C° 0 mm 4 mps 480 mmHg 34%
18:00 +11°C° 0 mm 3 mps 480 mmHg 37%
19:00 +10°C° 0 mm 3 mps 480 mmHg 39%
20:00 +9°C° 0 mm 3 mps 480 mmHg 42%
21:00 +8°C° 0 mm 2 mps 480 mmHg 45%
22:00 +8°C° 0 mm 2 mps 479 mmHg 48%
23:00 +7°C° 0 mm 2 mps 479 mmHg 51%
Show more